• En Argentina
  • Lista de países
  • Para 7 días
  • Temperatura del agua
  • El tiempo en el mapa
  • Informadores
  • user-avatar
    Iniciar sesión

    Tiempo cada hora Vanadzor

    Hoy, 31 Marzo, Martes

    Tiempo Temperatura Precipitaciones Viento Presión Humedad
    00:00 +3°C° 0 mm 2 mps 627 mmHg 81%
    01:00 +3°C° 0 mm 2 mps 627 mmHg 80%
    02:00 +2°C° 0 mm 2 mps 628 mmHg 79%
    03:00 +2°C° 0 mm 2 mps 628 mmHg 76%
    04:00 +2°C° 0 mm 2 mps 628 mmHg 77%
    05:00 +2°C° 0 mm 2 mps 629 mmHg 77%
    06:00 +1°C° 0 mm 3 mps 629 mmHg 78%
    07:00 +2°C° 0 mm 3 mps 629 mmHg 74%
    08:00 +3°C° 0 mm 3 mps 630 mmHg 71%
    09:00 +4°C° 0 mm 3 mps 630 mmHg 68%
    10:00 +5°C° 0 mm 3 mps 631 mmHg 63%
    11:00 +7°C° 0 mm 3 mps 631 mmHg 59%
    12:00 +7°C° 0 mm 4 mps 631 mmHg 55%
    13:00 +8°C° 0.1 mm 4 mps 631 mmHg 54%
    14:00 +8°C° 0.1 mm 4 mps 631 mmHg 54%
    15:00 +8°C° 0.1 mm 4 mps 631 mmHg 54%
    16:00 +9°C° 0.2 mm 3 mps 631 mmHg 59%
    17:00 +8°C° 0.2 mm 2 mps 630 mmHg 64%
    18:00 +8°C° 0.2 mm 1 mps 630 mmHg 68%
    19:00 +6°C° 0 mm 2 mps 630 mmHg 70%
    20:00 +5°C° 0 mm 2 mps 631 mmHg 72%
    21:00 +4°C° 0 mm 2 mps 631 mmHg 74%
    22:00 +4°C° 0 mm 2 mps 631 mmHg 74%
    23:00 +4°C° 0 mm 2 mps 630 mmHg 74%

    Mañana, 1 Abril, Miércoles

    Tiempo Temperatura Precipitaciones Viento Presión Humedad
    00:00 +4°C° 0 mm 2 mps 630 mmHg 75%
    01:00 +4°C° 0 mm 1 mps 630 mmHg 75%
    02:00 +4°C° 0 mm 1 mps 630 mmHg 76%
    03:00 +4°C° 0 mm 1 mps 630 mmHg 76%
    04:00 +4°C° 0 mm 1 mps 630 mmHg 76%
    05:00 +4°C° 0 mm 1 mps 630 mmHg 77%
    06:00 +4°C° 0 mm 1 mps 630 mmHg 77%
    07:00 +6°C° 0 mm 1 mps 631 mmHg 72%
    08:00 +7°C° 0 mm 1 mps 631 mmHg 66%
    09:00 +8°C° 0 mm 2 mps 631 mmHg 60%
    10:00 +8°C° 0 mm 2 mps 631 mmHg 60%
    11:00 +8°C° 0 mm 2 mps 631 mmHg 61%
    12:00 +9°C° 0 mm 2 mps 630 mmHg 62%
    13:00 +9°C° 0.1 mm 2 mps 630 mmHg 64%
    14:00 +9°C° 0.1 mm 2 mps 629 mmHg 67%
    15:00 +9°C° 0.1 mm 2 mps 629 mmHg 69%
    16:00 +8°C° 0.5 mm 2 mps 628 mmHg 77%
    17:00 +8°C° 0.5 mm 1 mps 628 mmHg 85%
    18:00 +7°C° 0.5 mm 1 mps 627 mmHg 93%
    19:00 +6°C° 2.6 mm 1 mps 628 mmHg 95%
    20:00 +6°C° 2.6 mm 1 mps 628 mmHg 96%
    21:00 +4°C° 2.6 mm 0 mps 628 mmHg 98%
    22:00 +5°C° 1.9 mm 1 mps 628 mmHg 98%
    23:00 +5°C° 1.9 mm 1 mps 627 mmHg 98%

    Pasado mañana, 2 Abril, Jueves

    Tiempo Temperatura Precipitaciones Viento Presión Humedad
    00:00 +5°C° 1.9 mm 1 mps 627 mmHg 98%
    01:00 +5°C° 0.2 mm 1 mps 627 mmHg 98%
    02:00 +5°C° 0.2 mm 1 mps 627 mmHg 98%
    03:00 +5°C° 0.2 mm 1 mps 627 mmHg 98%
    04:00 +5°C° 0.1 mm 1 mps 627 mmHg 98%
    05:00 +5°C° 0.1 mm 1 mps 628 mmHg 98%
    06:00 +5°C° 0.1 mm 1 mps 628 mmHg 98%
    07:00 +5°C° 0.2 mm 1 mps 628 mmHg 97%
    08:00 +5°C° 0.2 mm 1 mps 629 mmHg 97%
    09:00 +5°C° 0.2 mm 1 mps 629 mmHg 97%
    10:00 +6°C° 0.1 mm 1 mps 629 mmHg 94%
    11:00 +7°C° 0.1 mm 1 mps 629 mmHg 91%
    12:00 +6°C° 0.1 mm 2 mps 629 mmHg 88%
    13:00 +7°C° 0.1 mm 2 mps 629 mmHg 84%
    14:00 +7°C° 0.1 mm 2 mps 629 mmHg 80%
    15:00 +8°C° 0.1 mm 2 mps 629 mmHg 76%
    16:00 +8°C° 0.1 mm 2 mps 629 mmHg 77%
    17:00 +8°C° 0.1 mm 1 mps 629 mmHg 79%
    18:00 +7°C° 0.1 mm 1 mps 629 mmHg 81%
    19:00 +7°C° 0 mm 1 mps 629 mmHg 81%
    20:00 +6°C° 0 mm 1 mps 630 mmHg 81%
    21:00 +5°C° 0 mm 1 mps 630 mmHg 81%
    22:00 +5°C° 0 mm 1 mps 630 mmHg 80%
    23:00 +4°C° 0 mm 1 mps 630 mmHg 80%

    3 Abril, Viernes

    Tiempo Temperatura Precipitaciones Viento Presión Humedad
    00:00 +4°C° 0 mm 1 mps 630 mmHg 80%
    01:00 +4°C° 0 mm 1 mps 630 mmHg 81%
    02:00 +4°C° 0 mm 1 mps 630 mmHg 81%
    03:00 +3°C° 0 mm 1 mps 630 mmHg 81%
    04:00 +3°C° 0 mm 1 mps 630 mmHg 81%
    05:00 +3°C° 0 mm 1 mps 630 mmHg 81%
    06:00 +3°C° 0 mm 1 mps 630 mmHg 81%
    07:00 +5°C° 0 mm 1 mps 630 mmHg 79%
    08:00 +7°C° 0 mm 1 mps 631 mmHg 76%
    09:00 +8°C° 0 mm 1 mps 632 mmHg 74%
    10:00 +8°C° 0.1 mm 2 mps 632 mmHg 72%
    11:00 +9°C° 0.1 mm 2 mps 631 mmHg 70%
    12:00 +9°C° 0.1 mm 2 mps 631 mmHg 69%
    13:00 +9°C° 0.4 mm 2 mps 631 mmHg 69%
    14:00 +9°C° 0.4 mm 2 mps 631 mmHg 69%
    15:00 +9°C° 0.4 mm 2 mps 631 mmHg 69%
    16:00 +8°C° 0.3 mm 2 mps 630 mmHg 73%
    17:00 +8°C° 0.3 mm 2 mps 630 mmHg 76%
    18:00 +8°C° 0.3 mm 1 mps 630 mmHg 80%
    19:00 +7°C° 0 mm 1 mps 630 mmHg 82%
    20:00 +7°C° 0 mm 1 mps 631 mmHg 84%
    21:00 +6°C° 0 mm 1 mps 631 mmHg 86%
    22:00 +6°C° 0.3 mm 1 mps 631 mmHg 88%
    23:00 +6°C° 0.3 mm 1 mps 631 mmHg 91%

    4 Abril, Sábado

    Tiempo Temperatura Precipitaciones Viento Presión Humedad
    00:00 +5°C° 0.3 mm 0 mps 631 mmHg 94%
    01:00 +5°C° 0.9 mm 0 mps 631 mmHg 95%
    02:00 +5°C° 0.9 mm 1 mps 631 mmHg 96%
    03:00 +5°C° 0.9 mm 1 mps 631 mmHg 97%
    04:00 +5°C° 0.1 mm 1 mps 631 mmHg 96%
    05:00 +5°C° 0.1 mm 1 mps 631 mmHg 95%
    06:00 +5°C° 0.1 mm 1 mps 631 mmHg 93%
    07:00 +5°C° 0 mm 2 mps 632 mmHg 87%
    08:00 +6°C° 0 mm 2 mps 632 mmHg 81%
    09:00 +7°C° 0 mm 2 mps 633 mmHg 74%
    10:00 +8°C° 0.4 mm 2 mps 633 mmHg 71%
    11:00 +8°C° 0.4 mm 2 mps 633 mmHg 68%
    12:00 +9°C° 0.4 mm 3 mps 633 mmHg 65%
    13:00 +8°C° 0.9 mm 3 mps 633 mmHg 65%
    14:00 +8°C° 0.9 mm 3 mps 633 mmHg 66%
    15:00 +8°C° 0.9 mm 3 mps 633 mmHg 67%
    16:00 +7°C° 0.6 mm 3 mps 633 mmHg 71%
    17:00 +6°C° 0.6 mm 2 mps 633 mmHg 75%
    18:00 +6°C° 0.6 mm 1 mps 633 mmHg 79%
    19:00 +5°C° 0.2 mm 1 mps 633 mmHg 81%
    20:00 +4°C° 0.2 mm 1 mps 634 mmHg 82%
    21:00 +3°C° 0.2 mm 1 mps 634 mmHg 84%
    22:00 +3°C° 0 mm 1 mps 634 mmHg 83%
    23:00 +2°C° 0 mm 2 mps 634 mmHg 81%

    5 Abril, Domingo

    Tiempo Temperatura Precipitaciones Viento Presión Humedad
    00:00 +2°C° 0 mm 2 mps 635 mmHg 79%
    01:00 +2°C° 0 mm 2 mps 635 mmHg 79%
    02:00 +1°C° 0 mm 2 mps 635 mmHg 80%
    03:00 +1°C° 0 mm 2 mps 635 mmHg 80%
    04:00 +1°C° 0 mm 2 mps 635 mmHg 79%
    05:00 +1°C° 0 mm 2 mps 635 mmHg 78%
    06:00 +1°C° 0 mm 2 mps 636 mmHg 77%
    07:00 +3°C° 0 mm 2 mps 636 mmHg 69%
    08:00 +5°C° 0 mm 2 mps 637 mmHg 61%
    09:00 +7°C° 0 mm 1 mps 637 mmHg 53%
    10:00 +7°C° 0 mm 2 mps 637 mmHg 50%
    11:00 +9°C° 0 mm 2 mps 637 mmHg 46%
    12:00 +10°C° 0 mm 2 mps 638 mmHg 43%
    13:00 +10°C° 0 mm 2 mps 637 mmHg 43%
    14:00 +10°C° 0 mm 2 mps 637 mmHg 43%
    15:00 +10°C° 0 mm 2 mps 637 mmHg 43%
    16:00 +9°C° 0 mm 2 mps 637 mmHg 51%
    17:00 +9°C° 0 mm 1 mps 637 mmHg 58%
    18:00 +8°C° 0 mm 1 mps 636 mmHg 66%
    19:00 +7°C° 0 mm 1 mps 636 mmHg 72%
    20:00 +6°C° 0 mm 1 mps 637 mmHg 77%
    21:00 +5°C° 0 mm 1 mps 637 mmHg 82%
    22:00 +4°C° 0 mm 1 mps 637 mmHg 83%
    23:00 +3°C° 0 mm 0 mps 637 mmHg 84%
    Mostrar más